User: anonymous   Login
Location: Owatonna
(44.0840°N, 93.2260°W)
Time: 17:14:54
(UTC-05:00)
Language:

Cosmos 1500 Rocket - Orbit

View from above orbital plane
View from above orbital plane
View from above satellite
View from above satellite

Ground track
Ground track

The orbit data is extracted from the following two-line orbital elements,

1 14373U 83099B   16180.57646060  .00000078  00000-0  65703-5 0  9998
2 14373  82.5399 214.9895 0019096 316.9667 203.9232 14.83616393768441
Epoch (UTC): 28 June 2016 13:50:06
Eccentricity: 0.0019096
inclination: 82.5399°
perigee height: 604 km
apogee height: 631 km
right ascension of ascending node: 214.9895°
argument of perigee: 316.9667°
revolutions per day: 14.83616393
mean anomaly at epoch: 203.9232°
orbit number at epoch: 76844

The dashed part of the orbit path shows where the satellite is in the earth's shadow,  

DLR